This is the latest recevied weather packets stored in our database for station/object EA7RX-4. If no packets are shown the sender has not sent any weather packets the latest 10 day(s).
| Time | Temp. | Humidity | Pressure | Rain* | Wind** | Luminosity | Snow |
|---|---|---|---|---|---|---|---|
| 1787778603 | 21.67° C | 44% | 1012.1 hPa | 0 mm | - | 0 W/m² | - |
| 1787778003 | 21.67° C | 45% | 1012.2 hPa | 0 mm | - | 0 W/m² | - |
| 1787777403 | 21.67° C | 45% | 1012.2 hPa | 0 mm | - | 0 W/m² | - |
| 1787776803 | 21.67° C | 45% | 1012.2 hPa | 0 mm | - | 0 W/m² | - |
| 1787776203 | 21.67° C | 44% | 1012.1 hPa | 0 mm | - | 0 W/m² | - |
| 1787775603 | 21.67° C | 44% | 1012.1 hPa | 0 mm | - | 0 W/m² | - |
| 1787775003 | 22.22° C | 43% | 1011.9 hPa | 0 mm | - | 0 W/m² | - |
| 1787774403 | 22.22° C | 44% | 1012 hPa | 0 mm | - | 0 W/m² | - |
| 1787773803 | 22.22° C | 44% | 1011.9 hPa | 0 mm | - | 0 W/m² | - |
| 1787773203 | 22.22° C | 44% | 1011.7 hPa | 0 mm | - | 0 W/m² | - |
| 1787772603 | 22.22° C | 44% | 1011.8 hPa | 0 mm | - | 0 W/m² | - |
| 1787772003 | 22.22° C | 44% | 1011.6 hPa | 0 mm | - | 0 W/m² | - |
| 1787771403 | 22.78° C | 43% | 1011.6 hPa | 0 mm | - | 0 W/m² | - |
| 1787770803 | 22.78° C | 42% | 1011.4 hPa | 0 mm | - | 1 W/m² | - |
| 1787770203 | 23.33° C | 39% | 1011.2 hPa | 0 mm | - | 3 W/m² | - |
| 1787769603 | 23.33° C | 38% | 1011.4 hPa | 0 mm | - | 11 W/m² | - |
| 1787769003 | 23.33° C | 40% | 1011.4 hPa | 0 mm | - | 18 W/m² | - |
| 1787768403 | 23.89° C | 39% | 1011 hPa | 0 mm | - | 22 W/m² | - |
| 1787767803 | 23.89° C | 38% | 1011.2 hPa | 0 mm | - | 43 W/m² | - |
| 1787767203 | 23.89° C | 36% | 1011.2 hPa | 0 mm | - | 54 W/m² | - |
| 1787766603 | 24.44° C | 37% | 1011.3 hPa | 0 mm | - | 94 W/m² | - |
| 1787766003 | 24.44° C | 35% | 1011.2 hPa | 0 mm | - | 79 W/m² | - |
| 1787765403 | 24.44° C | 32% | 1011.5 hPa | 0 mm | - | 98 W/m² | - |
| 1787764803 | 24.44° C | 31% | 1011.3 hPa | 0 mm | - | 109 W/m² | - |
| 1787764203 | 25° C | 30% | 1011.2 hPa | 0 mm | - | 165 W/m² | - |
* Rain latest hour (hover to see other rain measurements)
** Current wind speed in m/s (hover to see current wind gust speed)